TimeCST,TemperatureF,Dew PointF,Humidity,Sea Level PressureIn,VisibilityMPH,Wind Direction,Wind SpeedMPH,Gust SpeedMPH,PrecipitationIn,Events,Conditions,WindDirDegrees,DateUTC
12:49 AM,17.6,12.2,79,30.22,8.0,West,10.4,-,N/A,,Scattered Clouds,280,2012-12-30 06:49:00
12:52 AM,18.0,12.0,78,30.25,8.0,West,10.4,-,N/A,,Partly Cloudy,270,2012-12-30 06:52:00
1:52 AM,17.1,12.0,81,30.28,8.0,West,9.2,-,N/A,,Clear,260,2012-12-30 07:52:00
2:52 AM,16.0,10.9,81,30.28,7.0,West,4.6,-,N/A,,Clear,260,2012-12-30 08:52:00
3:52 AM,15.1,10.0,80,30.29,7.0,WSW,6.9,-,N/A,,Clear,250,2012-12-30 09:52:00
4:52 AM,14.0,9.0,80,30.31,7.0,WSW,5.8,-,N/A,,Clear,250,2012-12-30 10:52:00
5:52 AM,14.0,9.0,80,30.33,7.0,WSW,4.6,-,N/A,,Clear,250,2012-12-30 11:52:00
7:52 AM,14.0,9.0,80,30.35,5.0,WSW,4.6,-,N/A,,Haze,250,2012-12-30 13:52:00
8:52 AM,17.1,10.0,74,30.37,5.0,WSW,9.2,-,N/A,,Haze,250,2012-12-30 14:52:00
9:52 AM,21.0,12.0,68,30.37,6.0,WSW,8.1,-,N/A,,Haze,240,2012-12-30 15:52:00
10:52 AM,24.1,15.1,69,30.35,7.0,SW,5.8,-,N/A,,Clear,220,2012-12-30 16:52:00
11:52 AM,28.0,17.1,63,30.32,7.0,WSW,6.9,-,N/A,,Clear,240,2012-12-30 17:52:00
12:52 PM,30.0,19.0,64,30.30,8.0,SW,9.2,-,N/A,,Clear,220,2012-12-30 18:52:00
1:52 PM,32.0,19.0,59,30.29,8.0,SW,10.4,-,N/A,,Clear,220,2012-12-30 19:52:00
2:52 PM,30.9,19.9,64,30.26,8.0,SSW,5.8,-,N/A,,Clear,210,2012-12-30 20:52:00
3:52 PM,32.0,19.9,61,30.26,10.0,SW,9.2,-,N/A,,Clear,220,2012-12-30 21:52:00
4:52 PM,30.0,21.0,69,30.25,10.0,SSW,8.1,-,N/A,,Clear,200,2012-12-30 22:52:00
5:52 PM,30.0,21.9,72,30.25,10.0,South,9.2,-,N/A,,Clear,190,2012-12-30 23:52:00
6:52 PM,30.0,23.0,75,30.22,10.0,South,8.1,-,N/A,,Clear,190,2012-12-31 00:52:00
7:52 PM,32.0,24.1,73,30.19,10.0,South,9.2,-,N/A,,Clear,190,2012-12-31 01:52:00
8:52 PM,32.0,26.1,79,30.16,10.0,South,10.4,-,N/A,,Clear,190,2012-12-31 02:52:00
9:52 PM,33.1,26.1,75,30.15,9.0,South,12.7,-,N/A,,Clear,190,2012-12-31 03:52:00
10:52 PM,33.1,23.0,66,30.12,10.0,SSW,15.0,-,N/A,,Clear,200,2012-12-31 04:52:00
11:52 PM,33.1,23.0,66,30.09,10.0,SSW,15.0,-,N/A,,Clear,210,2012-12-31 05:52:00